User: anonymous   Login
Location: La Fredeussais
(48.1780°N, 1.3980°W)
Time: 19:11:31
(UTC+00:00)
Language:

CUTE 1.7 + AOD 2 - Orbit

View from above orbital plane
View from above orbital plane
View from above satellite
View from above satellite

Ground track
Ground track

The orbit data is extracted from the following two-line orbital elements,

1 32785U 08021C   21294.41951670  .00000589  00000-0  68500-4 0  9992
2 32785  97.6265 268.4757 0011759 310.8537  49.1660 14.88848291730910
Epoch (UTC): 21 October 2021 10:04:06
Eccentricity: 0.0011759
inclination: 97.6265°
perigee height: 593 km
apogee height: 610 km
right ascension of ascending node: 268.4757°
argument of perigee: 310.8537°
revolutions per day: 14.88848291
mean anomaly at epoch: 49.1660°
orbit number at epoch: 73091

The dashed part of the orbit path shows where the satellite is in the earth's shadow,  

DLR